Home > Weather > Kaiserslautern > Past weeks

Flag for Germany Past Weather in Kaiserslautern, Rhineland-Palatinate, Germany — Yesterday and Last 2 Weeks

Now
65 °F

Scattered clouds.


Feels Like: 65 °F
Forecast: 57 / 71 °F
Wind: No wind

Location: Ramstein

Current Time: Jun 28, 2016 at 8:43:44 PM

Latest Report: Jun 28, 2016 at 7:58 PM


Visibility: N/A

Pressure: 29.98 "Hg

Humidity: 92%

Dew Point: 62 °F

Location of KaiserslauternLocation

Past Weather in Kaiserslautern — Graph

°F

Kaiserslautern Temperature Yesterday

Maximum temperature yesterday: 68 °F (at 3:58 PM)
Minimum temperature yesterday: 49 °F (at 4:58 AM)
Average temperature yesterday: 60 °F

High & Low Weather Summary for the Past Weeks

 TemperatureHumidityPressure
High93 °F (Jun 23, 6:58 PM)100% (Jun 14, 3:58 PM)30.27 "Hg (Jun 14, 3:58 PM)
Low45 °F (Jun 20, 4:46 AM)42% (Jun 23, 3:58 PM)29.54 "Hg (Jun 15, 5:50 AM)
Average62 °F86%29.97 "Hg
* Reported Jun 13 7:58 PM — Jun 28 7:01 PM, Kaiserslautern, Weather by CustomWeather, © 2016

Note: Actual official high and low records may vary slightly from our data, if they occured in-between our weather recording intervals... More about our weather records

Advertising

Kaiserslautern Weather History for the Previous 24 Hours

Scroll right to see more
 ConditionsComfort  
Time TempWeatherWind HumidityBarometerVisibility
7:01 PM
Tue, Jun 28
64 °FMostly cloudy.8 mph88%30.00 "HgN/A
6:59 PM64 °FFog.6 mph88%30.01 "Hg6 mi
5:58 PM70 °FBroken clouds.3 mph69%29.99 "HgN/A
4:58 PM70 °FDrizzle. Cloudy.No wind73%30.00 "HgN/A
3:58 PM70 °FBroken clouds.2 mph73%30.02 "HgN/A
2:58 PM68 °FBroken clouds.2 mph73%30.03 "HgN/A
1:58 PM68 °FBroken clouds.1 mph69%30.04 "HgN/A
12:58 PM68 °FCloudy.No wind73%30.06 "HgN/A
11:58 AM66 °FBroken clouds.No wind80%30.07 "HgN/A
10:58 AM64 °FBroken clouds.2 mph83%30.08 "HgN/A
9:59 AM61 °FMostly cloudy.No wind100%30.10 "HgN/A
8:59 AM60 °FLow clouds.No wind100%30.09 "HgN/A
7:58 AM60 °FDrizzle. Fog.No wind100%30.08 "Hg4 mi
7:01 AM59 °FPartly sunny.3 mph100%30.09 "HgN/A
6:58 AM59 °FBroken clouds.3 mph100%30.09 "HgN/A
5:59 AM59 °FDrizzle. Mostly cloudy.No wind100%30.10 "HgN/A
4:58 AM59 °FDrizzle. Fog.No wind100%30.10 "Hg6 mi
3:58 AM60 °FPassing clouds.No wind99%30.09 "HgN/A
2:58 AM60 °FPassing clouds.No wind99%30.10 "HgN/A
1:58 AM60 °FMostly cloudy.1 mph99%30.13 "HgN/A
1:00 AM61 °FPassing clouds.2 mph94%30.13 "HgN/A
11:58 PM
Mon, Jun 27
63 °FPartly cloudy.6 mph83%30.12 "HgN/A
10:58 PM63 °FPassing clouds.1 mph83%30.13 "HgN/A
9:58 PM63 °FLight rain. Broken clouds.No wind81%30.11 "Hg4 mi
8:58 PM65 °FPartly sunny.3 mph75%30.11 "HgN/A
Weather by CustomWeather, © 2016

See weather overviewHow to use our weather pages